CZ-6A DEB

Satellite information

Favourite Embed

Satellite Type and Status

DEBRISIN ORBIT

Key statistics

Satellite CZ-6A DEB at a glance.

Uptime

447

Days in orbit

Revolutions

≈ 14.6

Per day

Orbit

LEO

Low Earth Orbit

Inclination

88.8

Latest

Satellite identification and parameters

Extended collection of information and parameters for CZ-6A DEB.

Object identification

Identified? True

Debris? True

Object name: CZ-6A DEB

International designator: 2024-140UA

Object number (NORAD): 61313

Object ID (CCSDS): 61313

Country: PEOPLES REPUBLIC OF CHINA (PRC)

Current information (Y/N): Y

RCS size: SMALL

Orbital parameters

Period: 98.557 minutes

Inclination: 88.7718 deg

SMA: 7067.823 km

Apoapsis: 719.347 km

Periapsis: 660.03 km

RAAN: 286.073 deg

Eccentricy: 0.00419621

Argument of periapsis: 328.2033 deg

Mean anomaly: 31.6646 deg

Mean motion: 14.61080769 rev/day

Mean motion (dot): 0.00024308 rev/day2

B* drag term: 0.0048717828 1/REarth

Two-line elements (TLE)

Creation date: Oct. 27, 2025, 2:46 a.m.

Reference frame: TEME

Reference center: EARTH

Epoch: Oct. 26, 2025, 10:31 p.m. UTC

TLE line 0: 0 CZ-6A DEB

TLE line 1: 1 61313U 24140UA 25299.93872426 .00024308 00000-0 48718-2 0 9990

TLE line 2: 2 61313 88.7718 286.0730 0041962 328.2033 31.6646 14.61080769 61986

Live tracking on map

Real-time ground track for satellite CZ-6A DEB.

In-orbit conjunctions

A list of the most updated potential collisions computed for object CZ-6A DEB.

Target Orbit TCA Probability of collision Miss distance Type
GALEX LEO 2025-09-16 19:18:42 0.0003174657 536.0 (m) PAYLOAD
CZ-6A DEB SSO 2025-02-10 08:14:06 0.0007984162 20.0 (m) DEBRIS
FENGYUN 1C DEB SSO 2024-12-26 11:40:53 0.0002459599 889.0 (m) DEBRIS
FENGYUN 1C DEB SSO 2024-12-13 03:35:47 0.0002889406 929.0 (m) DEBRIS
COSMOS 2251 DEB LEO 2024-11-17 10:46:32 0.003384361 37.0 (m) DEBRIS

Associated space launch

18 Low Earth Orbit communication satellites with Ku, Q and V band payloads for the G60 constellation operated by Shanghai Spacecom Satellite Technology (SSST) with funding backed by the Shanghai local government. Initial constellation will consist of 1296 satellites by 2027 with long term plans to expand it to 12000 satellites.

CZ-6A DEB was lifted into orbit during the mission ‘Long March 6A | G60 Polar Group 01’, on board a Long March 6A space rocket.

The launch took place on Aug. 6, 2024, 6:42 a.m. from Launch Complex 9A.

For more information about the launch, click the button.

Launch to space Long March 6A | G60 Polar Group 01
Long March 6A | G60 Polar Group 01

Agency: N/A

Status: Launch Successful

Launch date: Aug. 6, 2024, 6:42 a.m. UTC

Rocket: Long March 6A

Launch pad: Launch Complex 9A

Location: Taiyuan Satellite Launch Center, People's Republic of China

...

Latest news about this satellite

News about space launch
Brightness of first Chinese broadband constellation satellites alarms astronomers

The first satellites of a Chinese broadband constellation are significantly brighter than those of Western systems, posing a new challenge for astronomers.

News about space launch
Chinese rocket stage breaks up into cloud of more than 700 pieces of space debris

HELSINKI — A Chinese Long March 6A rocket’s upper stage has fragmented into a cloud of over 700 pieces of space debris, adding to concerns about long-term orbital safety. China […]

News about space launch
China's Thousand Sails Megaconstellation Kicks Off with Dangerous Debris Field

China's Thousand Sails Megaconstellation Kicks Off with Dangerous Debris Field


Newsletter sign-up

Weekly statistics, charts and insights to help you stay on top of the space industry.